{"data":{"norad_id":61677,"epoch":"2026-05-25T02:45:28.609344Z","epoch_age_seconds":79205,"freshness":"FRESH","line1":"1 61677U 24193S   26145.11491446 -.00000014  00000+0  10735-4 0  9999","line2":"2 61677  53.1610  94.8887 0001353  75.5773 284.5380 15.34383310 88248","mean_motion":15.3438331,"eccentricity":0.0001353,"inclination_deg":53.161,"raan_deg":94.8887,"arg_perigee_deg":75.5773,"mean_anomaly_deg":284.538,"bstar":1.0735e-5,"rev_number":8824,"period_min":93.84877889476,"perigee_km":461.82727445774,"apogee_km":463.67841925029,"semimajor_km":6840.889846854,"source":"CELESTRAK","updated_at":"2026-05-25T13:38:19.436939Z"}}